Regional Weather Roundup
Issued by NWS Green Bay, WI

Home | Current Version | Previous Version | Graphics & Text | Print | Product List | Glossary Off
Versions: 1 2 3 4 5 6 7 8 9 10 11 12 13 14 15 16 17 18 19 20 21 22 23 24 25 26 27 28 29 30 31 32 33 34 35 36 37 38 39 40 41 42 43 44 45 46 47 48 49 50

000
ASUS43 KGRB 250401
RWRGRB

NORTH-CENTRAL AND NORTHEAST WISCONSIN REGIONAL WEATHER ROUNDUP
NATIONAL WEATHER SERVICE GREEN BAY WI
1100 PM CDT SAT JUN 24 2017

WIZ005-009-010>012-018-019-250500-
NORTH CENTRAL WISCONSIN

CITY           SKY/WX    TMP DP  RH WIND       PRES   REMARKS
IRONWOOD       LGT RAIN  53  51  93 W9        29.96S
MANITOWISH WTR NOT AVBL
ARBOR VITAE    NOT AVBL
EAGLE RIVER    NOT AVBL
LAND O LAKES   RAIN      52  51  97 CALM      29.97S
RHINELANDER    LGT RAIN  51  50  96 W5        29.97S
PHILLIPS       NOT AVBL
ANTIGO         NOT AVBL
TOMAHAWK       NOT AVBL
MERRILL        CLOUDY    52  50  93 W5        29.99F
$$

WIZ013-073-250500-
NORTHEAST WISCONSIN

CITY           SKY/WX    TMP DP  RH WIND       PRES   REMARKS
IRON MOUNTAIN  LGT RAIN  53  50  89 W5        29.93S
MARINETTE      PTCLDY    54  52  93 CALM      29.94F
$$

WIZ017-030-035>037-045-250500-
CENTRAL WISCONSIN

CITY           SKY/WX    TMP DP  RH WIND       PRES   REMARKS
MEDFORD        NOT AVBL
WAUSAU         CLOUDY    53  47  79 W9        29.98F
MOSINEE        NOT AVBL
MARSHFIELD     MOCLDY    51  46  83 W6        30.01S
WISC RAPIDS    MOCLDY    53  45  74 W6        30.03R
STEVENS POINT  NOT AVBL
WAUPACA        CLOUDY    54  51  90 W5        30.00S
SHAWANO        NOT AVBL
CLINTONVILLE   NOT AVBL
WAUTOMA        CLEAR     52  47  83 W8        30.02S
$$

WIZ038-039-048-051-250500-
FOX VALLEY

CITY           SKY/WX    TMP DP  RH WIND       PRES   REMARKS
NWS GREEN BAY  CLOUDY    57  48  72 W14       29.96R
APPLETON       LGT RAIN  52  43  71 SW10G24   29.99R
OSHKOSH        PTCLDY    55  46  71 W8        30.00R
FOND DU LAC    CLEAR     55  44  66 W8        30.01R
$$

WIZ022-050-052-250500-
EAST CENTRAL WISCONSIN

CITY           SKY/WX    TMP DP  RH WIND       PRES   REMARKS
EPHRAIM        NOT AVBL
WASHINGTON ISL NOT AVBL
STURGEON BAY     N/A     54  52  93 CALM        N/A
MANITOWOC      NOT AVBL
SHEBOYGAN      MOCLDY    56  47  71 W14       29.97F
$$

LMZ563-521-522-541>543-250500-
LAKESHORE

STATION/POSITION TIME  TEMP    WIND        PRES    VSBY  WAVE
                       AIR SEA DIR/SP/G                  HT/PER
                 (UTC) (F)     (DEG/KT/KT) (MB)    (MI)  (FT/S)
SHEBOYGAN LKSHOR 0300   62     270/ 17/ 21 1014.8R
KEWAUNEE LKSHORE 0330   55      20/  7/ 12 1013.9R
NORTHPORT PIER   0330   56     190/  3/  6 1013.9S
N MID LAKE BUOY  0250   58 57  240/  4/  6 1013.9R         1/ 3
S GREEN BAY BUOY 0330   59      50/  8/ 12 1013.9R
CHAMBERS ISLAND  0340   57     290/  5/  7 1013.5F
MENOMINEE LKSHOR 0330          170/  2/  3 1013.2S
$$




USA.gov is the U.S. government's official web portal to all federal, state and local government web resources and services.